Time,TemperatureF,DewpointF,PressureIn,WindDirection,WindDirectionDegrees,WindSpeedMPH,WindSpeedGustMPH,Humidity,HourlyPrecipIn,Conditions,Clouds,dailyrainin,SolarRadiationWatts/m^2,SoftwareType,DateUTC
2014-12-20 00:01:00,33.6,33.0,30.07,ESE,122,0.0,0.0,96,0.00,,,0.00,0,Custom,2014-12-20 06:01:00,
2014-12-20 00:06:00,33.6,33.0,30.07,ESE,122,0.0,0.0,96,0.00,,,0.00,0,Custom,2014-12-20 06:06:00,
2014-12-20 00:11:00,33.7,33.0,30.07,ESE,122,0.0,0.0,96,0.00,,,0.00,0,Custom,2014-12-20 06:11:00,
2014-12-20 00:16:00,33.6,33.0,30.07,ESE,122,0.0,0.0,96,0.00,,,0.00,0,Custom,2014-12-20 06:16:00,
2014-12-20 00:21:00,33.6,33.0,30.07,ESE,122,0.0,0.0,96,0.00,,,0.00,0,Custom,2014-12-20 06:21:00,
2014-12-20 00:26:00,33.6,33.0,30.06,ESE,122,0.0,0.0,96,0.00,,,0.00,0,Custom,2014-12-20 06:26:00,
2014-12-20 00:31:00,33.6,33.0,30.06,ESE,122,0.0,0.0,96,0.00,,,0.00,0,Custom,2014-12-20 06:31:00,
2014-12-20 00:36:00,33.6,33.0,30.06,ESE,122,0.0,0.0,96,0.00,,,0.00,0,Custom,2014-12-20 06:36:00,
2014-12-20 00:41:00,33.4,33.0,30.06,ESE,122,0.0,0.0,96,0.00,,,0.00,0,Custom,2014-12-20 06:41:00,
2014-12-20 00:46:00,33.4,33.0,30.05,ESE,122,0.0,0.0,96,0.00,,,0.00,0,Custom,2014-12-20 06:46:00,
2014-12-20 00:51:00,33.4,33.0,30.05,ESE,122,0.0,0.0,96,0.00,,,0.00,0,Custom,2014-12-20 06:51:00,
2014-12-20 00:56:00,33.4,32.0,30.06,ESE,122,0.0,0.0,96,0.00,,,0.00,0,Custom,2014-12-20 06:56:00,
2014-12-20 01:01:00,33.4,32.0,30.06,ESE,122,0.0,0.0,96,0.00,,,0.00,0,Custom,2014-12-20 07:01:00,
2014-12-20 01:06:00,33.4,32.0,30.05,ESE,122,0.0,0.0,96,0.00,,,0.00,0,Custom,2014-12-20 07:06:00,
2014-12-20 01:11:00,33.4,32.0,30.05,ESE,122,0.0,0.0,96,0.00,,,0.00,0,Custom,2014-12-20 07:11:00,
2014-12-20 01:16:00,33.4,32.0,30.05,ESE,122,0.0,0.0,96,0.00,,,0.00,0,Custom,2014-12-20 07:16:00,
2014-12-20 01:21:00,33.4,33.0,30.06,ESE,122,0.0,0.0,96,0.00,,,0.00,0,Custom,2014-12-20 07:21:00,
2014-12-20 01:26:00,33.4,32.0,30.05,ESE,122,0.0,0.0,96,0.00,,,0.00,0,Custom,2014-12-20 07:26:00,
2014-12-20 01:31:00,33.4,33.0,30.05,ESE,122,0.0,0.0,96,0.00,,,0.00,0,Custom,2014-12-20 07:31:00,
2014-12-20 01:36:00,33.4,33.0,30.06,ESE,122,0.0,0.0,96,0.00,,,0.00,0,Custom,2014-12-20 07:36:00,
2014-12-20 01:41:00,33.4,32.0,30.05,ESE,122,0.0,1.0,96,0.00,,,0.00,0,Custom,2014-12-20 07:41:00,
2014-12-20 01:46:00,33.4,33.0,30.05,ESE,122,2.0,2.0,96,0.00,,,0.00,0,Custom,2014-12-20 07:46:00,
2014-12-20 01:51:00,33.4,32.0,30.05,ESE,122,2.0,2.0,96,0.00,,,0.00,0,Custom,2014-12-20 07:51:00,
2014-12-20 01:56:00,33.4,33.0,30.05,ESE,122,0.0,2.0,97,0.00,,,0.00,0,Custom,2014-12-20 07:56:00,
2014-12-20 02:01:00,33.3,32.0,30.05,ESE,122,1.0,2.0,96,0.00,,,0.00,0,Custom,2014-12-20 08:01:00,
2014-12-20 02:06:00,33.3,32.0,30.05,ESE,122,1.0,2.0,96,0.00,,,0.00,0,Custom,2014-12-20 08:06:00,
2014-12-20 02:11:00,33.3,32.0,30.05,SE,130,2.0,3.0,96,0.00,,,0.00,0,Custom,2014-12-20 08:11:00,
2014-12-20 02:16:00,33.1,32.0,30.06,SE,146,0.0,3.0,96,0.00,,,0.00,0,Custom,2014-12-20 08:16:00,
2014-12-20 02:21:00,33.1,32.0,30.05,SSE,166,3.0,3.0,96,0.00,,,0.00,0,Custom,2014-12-20 08:21:00,
2014-12-20 02:26:00,33.2,32.0,30.05,SSE,166,0.0,2.0,97,0.00,,,0.00,0,Custom,2014-12-20 08:26:00,
2014-12-20 02:31:00,33.2,32.0,30.06,SSE,166,0.0,0.0,96,0.00,,,0.00,0,Custom,2014-12-20 08:31:00,
2014-12-20 02:36:00,33.2,32.0,30.06,SSE,166,0.0,0.0,96,0.00,,,0.00,0,Custom,2014-12-20 08:36:00,
2014-12-20 02:41:00,33.2,32.0,30.06,SSE,166,0.0,0.0,96,0.00,,,0.00,0,Custom,2014-12-20 08:41:00,
2014-12-20 02:46:00,33.2,32.0,30.05,SSE,166,0.0,2.0,96,0.00,,,0.00,0,Custom,2014-12-20 08:46:00,
2014-12-20 02:51:00,33.2,32.0,30.05,SSE,166,2.0,0.0,96,0.00,,,0.00,0,Custom,2014-12-20 08:51:00,
2014-12-20 02:56:00,33.2,32.0,30.05,SSE,166,0.0,1.0,96,0.00,,,0.00,0,Custom,2014-12-20 08:56:00,
2014-12-20 03:01:00,33.4,32.0,30.06,South,169,1.0,3.0,96,0.00,,,0.00,0,Custom,2014-12-20 09:01:00,
2014-12-20 03:06:00,33.4,33.0,30.05,South,169,0.0,2.0,96,0.00,,,0.00,0,Custom,2014-12-20 09:06:00,
2014-12-20 03:11:00,33.4,33.0,30.06,South,169,0.0,1.0,96,0.00,,,0.00,0,Custom,2014-12-20 09:11:00,
2014-12-20 03:16:00,33.4,33.0,30.06,South,169,0.0,0.0,96,0.00,,,0.00,0,Custom,2014-12-20 09:16:00,
2014-12-20 03:21:00,33.4,32.0,30.06,South,169,0.0,2.0,96,0.00,,,0.00,0,Custom,2014-12-20 09:21:00,
2014-12-20 03:26:00,33.4,32.0,30.06,South,169,0.0,1.0,96,0.00,,,0.00,0,Custom,2014-12-20 09:26:00,
2014-12-20 03:31:00,33.4,32.0,30.05,South,169,0.0,0.0,96,0.00,,,0.00,0,Custom,2014-12-20 09:31:00,
2014-12-20 03:36:00,33.4,32.0,30.06,South,169,0.0,0.0,96,0.00,,,0.00,0,Custom,2014-12-20 09:36:00,
2014-12-20 03:41:00,33.4,32.0,30.06,South,169,0.0,0.0,96,0.00,,,0.00,0,Custom,2014-12-20 09:41:00,
2014-12-20 03:46:00,33.4,32.0,30.06,South,169,0.0,0.0,96,0.00,,,0.00,0,Custom,2014-12-20 09:46:00,
2014-12-20 03:51:00,33.4,32.0,30.06,South,169,0.0,0.0,96,0.00,,,0.00,0,Custom,2014-12-20 09:51:00,
2014-12-20 03:56:00,33.4,32.0,30.05,South,169,0.0,0.0,96,0.00,,,0.00,0,Custom,2014-12-20 09:56:00,
2014-12-20 04:01:00,33.4,32.0,30.05,South,169,0.0,2.0,96,0.00,,,0.00,0,Custom,2014-12-20 10:01:00,
2014-12-20 04:06:00,33.4,32.0,30.05,South,169,0.0,0.0,96,0.00,,,0.00,0,Custom,2014-12-20 10:06:00,
2014-12-20 04:11:00,33.4,32.0,30.05,South,169,0.0,0.0,96,0.00,,,0.00,0,Custom,2014-12-20 10:11:00,
2014-12-20 04:16:00,33.4,32.0,30.05,South,169,0.0,0.0,96,0.00,,,0.00,0,Custom,2014-12-20 10:16:00,
2014-12-20 04:21:00,33.4,32.0,30.05,South,169,0.0,0.0,96,0.00,,,0.00,0,Custom,2014-12-20 10:21:00,
2014-12-20 04:26:00,33.4,32.0,30.05,South,169,0.0,0.0,95,0.00,,,0.00,0,Custom,2014-12-20 10:26:00,
2014-12-20 04:31:00,33.4,32.0,30.05,South,169,0.0,0.0,95,0.00,,,0.00,0,Custom,2014-12-20 10:31:00,
2014-12-20 04:36:00,33.2,32.0,30.05,South,169,0.0,0.0,95,0.00,,,0.00,0,Custom,2014-12-20 10:36:00,
2014-12-20 04:41:00,33.2,32.0,30.05,South,169,0.0,2.0,95,0.00,,,0.00,0,Custom,2014-12-20 10:41:00,
2014-12-20 04:46:00,33.2,32.0,30.05,South,169,0.0,0.0,95,0.00,,,0.00,0,Custom,2014-12-20 10:46:00,
2014-12-20 04:51:00,33.2,32.0,30.05,South,169,0.0,0.0,95,0.00,,,0.00,0,Custom,2014-12-20 10:51:00,
2014-12-20 04:56:00,33.2,32.0,30.05,South,169,0.0,0.0,95,0.00,,,0.00,0,Custom,2014-12-20 10:56:00,
2014-12-20 05:01:00,33.2,32.0,30.05,South,169,0.0,0.0,95,0.00,,,0.00,0,Custom,2014-12-20 11:01:00,
2014-12-20 05:06:00,33.2,32.0,30.05,South,169,0.0,0.0,95,0.00,,,0.00,0,Custom,2014-12-20 11:06:00,
2014-12-20 05:11:00,33.2,32.0,30.05,South,169,0.0,0.0,95,0.00,,,0.00,0,Custom,2014-12-20 11:11:00,
2014-12-20 05:16:00,33.2,32.0,30.05,South,169,0.0,0.0,95,0.00,,,0.00,0,Custom,2014-12-20 11:16:00,
2014-12-20 05:21:00,33.2,32.0,30.05,South,169,0.0,0.0,95,0.00,,,0.00,0,Custom,2014-12-20 11:21:00,
2014-12-20 05:26:00,33.2,32.0,30.05,South,169,0.0,0.0,95,0.00,,,0.00,0,Custom,2014-12-20 11:26:00,
2014-12-20 05:31:00,33.2,32.0,30.05,South,169,0.0,0.0,95,0.00,,,0.00,0,Custom,2014-12-20 11:31:00,
2014-12-20 05:36:00,33.2,32.0,30.05,South,169,0.0,0.0,95,0.00,,,0.00,0,Custom,2014-12-20 11:36:00,
2014-12-20 05:41:00,33.2,32.0,30.05,South,169,0.0,0.0,95,0.00,,,0.00,0,Custom,2014-12-20 11:41:00,
2014-12-20 05:46:00,33.2,32.0,30.05,South,169,0.0,0.0,95,0.00,,,0.00,0,Custom,2014-12-20 11:46:00,
2014-12-20 05:51:00,33.2,32.0,30.05,South,169,0.0,0.0,94,0.00,,,0.00,0,Custom,2014-12-20 11:51:00,
2014-12-20 05:56:00,33.2,32.0,30.05,South,169,0.0,0.0,94,0.00,,,0.00,0,Custom,2014-12-20 11:56:00,
2014-12-20 06:01:00,33.2,32.0,30.05,South,169,0.0,0.0,95,0.00,,,0.00,0,Custom,2014-12-20 12:01:00,
2014-12-20 06:06:00,33.2,32.0,30.05,South,169,0.0,0.0,95,0.00,,,0.00,0,Custom,2014-12-20 12:06:00,
2014-12-20 06:11:00,33.2,32.0,30.05,South,169,0.0,1.0,95,0.00,,,0.00,0,Custom,2014-12-20 12:11:00,
2014-12-20 06:16:00,33.2,32.0,30.05,South,169,0.0,0.0,95,0.00,,,0.00,0,Custom,2014-12-20 12:16:00,
2014-12-20 06:21:00,33.3,32.0,30.05,South,169,2.0,3.0,95,0.00,,,0.00,0,Custom,2014-12-20 12:21:00,
2014-12-20 06:26:00,33.3,32.0,30.05,South,169,0.0,3.0,95,0.00,,,0.00,0,Custom,2014-12-20 12:26:00,
2014-12-20 06:31:00,33.3,32.0,30.05,SSW,202,3.0,3.0,95,0.00,,,0.00,0,Custom,2014-12-20 12:31:00,
2014-12-20 06:36:00,33.3,32.0,30.05,SW,218,0.0,4.0,95,0.00,,,0.00,0,Custom,2014-12-20 12:36:00,
2014-12-20 06:41:00,33.5,32.0,30.05,SW,218,2.0,2.0,95,0.00,,,0.00,0,Custom,2014-12-20 12:41:00,
2014-12-20 06:46:00,33.5,32.0,30.05,SSW,199,0.0,6.0,95,0.00,,,0.00,0,Custom,2014-12-20 12:46:00,
2014-12-20 06:51:00,33.5,32.0,30.05,SSW,200,2.0,3.0,95,0.00,,,0.00,0,Custom,2014-12-20 12:51:00,
2014-12-20 06:56:00,33.5,32.0,30.05,SSW,204,1.0,4.0,94,0.00,,,0.00,0,Custom,2014-12-20 12:56:00,
2014-12-20 07:01:00,33.5,32.0,30.05,South,190,3.0,4.0,94,0.00,,,0.00,0,Custom,2014-12-20 13:01:00,
2014-12-20 07:06:00,33.5,32.0,30.05,SSW,201,3.0,5.0,93,0.00,,,0.00,0,Custom,2014-12-20 13:06:00,
2014-12-20 07:11:00,33.5,32.0,30.06,South,188,1.0,4.0,94,0.00,,,0.00,0,Custom,2014-12-20 13:11:00,
2014-12-20 07:16:00,33.5,32.0,30.05,SSW,197,3.0,5.0,94,0.00,,,0.00,0,Custom,2014-12-20 13:16:00,
2014-12-20 07:21:00,33.5,32.0,30.05,SSW,196,2.0,5.0,94,0.00,,,0.00,0,Custom,2014-12-20 13:21:00,
2014-12-20 07:26:00,33.5,32.0,30.05,South,191,5.0,5.0,94,0.00,,,0.00,0,Custom,2014-12-20 13:26:00,
2014-12-20 07:31:00,33.5,32.0,30.06,South,184,4.0,8.0,94,0.00,,,0.00,0,Custom,2014-12-20 13:31:00,
2014-12-20 07:36:00,33.5,32.0,30.06,SSW,201,3.0,6.0,93,0.00,,,0.00,0,Custom,2014-12-20 13:36:00,
2014-12-20 07:41:00,33.6,32.0,30.05,South,177,3.0,8.0,93,0.00,,,0.00,0,Custom,2014-12-20 13:41:00,
2014-12-20 07:46:00,33.6,32.0,30.05,South,183,3.0,5.0,94,0.00,,,0.00,0,Custom,2014-12-20 13:46:00,
2014-12-20 07:51:00,33.7,32.0,30.05,South,184,5.0,7.0,94,0.00,,,0.00,0,Custom,2014-12-20 13:51:00,
2014-12-20 07:56:00,33.7,32.0,30.05,South,191,2.0,8.0,93,0.00,,,0.00,10.53,Custom,2014-12-20 13:56:00,
2014-12-20 08:01:00,33.8,32.0,30.05,SSW,196,8.0,8.0,94,0.00,,,0.00,12.48,Custom,2014-12-20 14:01:00,
2014-12-20 08:06:00,33.9,32.0,30.05,South,190,5.0,7.0,93,0.00,,,0.00,16.77,Custom,2014-12-20 14:06:00,
2014-12-20 08:11:00,34.0,32.0,30.05,South,175,4.0,9.0,93,0.00,,,0.00,19.5,Custom,2014-12-20 14:11:00,
2014-12-20 08:16:00,34.0,32.0,30.05,South,186,3.0,7.0,93,0.00,,,0.00,26.13,Custom,2014-12-20 14:16:00,
2014-12-20 08:21:00,34.2,32.0,30.05,SSW,202,4.0,5.0,93,0.00,,,0.00,29.64,Custom,2014-12-20 14:21:00,
2014-12-20 08:26:00,34.2,33.0,30.05,SSW,192,6.0,6.0,93,0.00,,,0.00,26.52,Custom,2014-12-20 14:26:00,
2014-12-20 08:31:00,34.4,33.0,30.05,SSW,195,2.0,6.0,93,0.00,,,0.00,37.44,Custom,2014-12-20 14:31:00,
2014-12-20 08:36:00,34.5,33.0,30.05,SSE,167,7.0,8.0,93,0.00,,,0.00,53.43,Custom,2014-12-20 14:36:00,
2014-12-20 08:41:00,34.6,33.0,30.05,South,174,5.0,8.0,93,0.00,,,0.00,50.31,Custom,2014-12-20 14:41:00,
2014-12-20 08:46:00,34.7,33.0,30.05,South,175,3.0,11.0,93,0.00,,,0.00,54.21,Custom,2014-12-20 14:46:00,
2014-12-20 08:51:00,34.9,33.0,30.04,SSW,197,5.0,7.0,93,0.00,,,0.00,56.94,Custom,2014-12-20 14:51:00,
2014-12-20 08:56:00,35.1,33.0,30.05,South,176,5.0,7.0,92,0.00,,,0.00,51.87,Custom,2014-12-20 14:56:00,
2014-12-20 09:01:00,35.1,33.0,30.05,South,175,5.0,8.0,92,0.00,,,0.00,58.5,Custom,2014-12-20 15:01:00,
2014-12-20 09:06:00,0.0,30.0,30.04,SSW,196,3.0,9.0,92,0.00,,,0.00,78.39,Custom,2014-12-20 15:06:00,
2014-12-20 09:12:00,35.8,34.0,30.05,South,187,6.0,7.0,93,0.00,,,0.00,81.51,Custom,2014-12-20 15:12:00,
2014-12-20 09:17:00,35.8,34.0,30.05,SSE,168,2.0,9.0,92,0.00,,,0.00,91.26,Custom,2014-12-20 15:17:00,
2014-12-20 09:22:00,35.8,34.0,30.05,SW,224,4.0,14.0,92,0.00,,,0.00,83.46,Custom,2014-12-20 15:22:00,
2014-12-20 09:27:00,36.0,34.0,30.05,South,182,9.0,11.0,92,0.00,,,0.00,92.04,Custom,2014-12-20 15:27:00,
2014-12-20 09:32:00,36.2,34.0,30.05,South,179,6.0,8.0,91,0.00,,,0.00,100.62,Custom,2014-12-20 15:32:00,
2014-12-20 09:37:00,36.5,34.0,30.04,South,180,4.0,8.0,91,0.00,,,0.00,118.56,Custom,2014-12-20 15:37:00,
2014-12-20 09:42:00,36.5,34.0,30.05,South,171,8.0,12.0,91,0.00,,,0.00,99.45,Custom,2014-12-20 15:42:00,
2014-12-20 09:47:00,36.6,34.0,30.04,SSW,210,7.0,13.0,90,0.00,,,0.00,105.3,Custom,2014-12-20 15:47:00,
2014-12-20 09:52:00,37.3,35.0,30.04,South,179,4.0,10.0,90,0.00,,,0.00,154.83,Custom,2014-12-20 15:52:00,
2014-12-20 09:57:00,37.5,35.0,30.04,SSW,194,4.0,7.0,89,0.00,,,0.00,189.54,Custom,2014-12-20 15:57:00,
2014-12-20 10:02:00,38.3,35.0,30.05,SSE,167,4.0,9.0,90,0.00,,,0.00,205.14,Custom,2014-12-20 16:02:00,